Location: Helsinki
(60.1699°N, 24.9384°E)
Time: 21:45:46
(UTC+02:00)

Transit 2A Rocket - Pass Details

Date: 24 September 2023
Orbit: 593 x 903 km, 66.7° (Epoch: 29 November)

Event Time Altitude Azimuth Distance (km) Brightness Sun altitude
Rises 17:54:03 0° 236° (WSW) 3,275 10.0 9.1°
Reaches altitude 10° 17:56:33 10° 238° (WSW) 2,298 9.5 8.8°
Maximum altitude 18:01:48 77° 325° (NW) 738 5.2 8.2°
Drops below altitude 10° 18:06:35 10° 52° (NE) 2,106 6.8 7.6°
Sets 18:08:48 0° 54° (NE) 2,979 7.5 7.4°
